Location: Domont
(49.0278°N, 2.3264°E)
Time: 22:11:30
(UTC+00:00)

Cosmos 371 Rocket - Pass Details

Date: 16 October 2021
Orbit: 684 x 699 km, 74.0° (Epoch: 06 December)

Event Time Altitude Azimuth Distance (km) Brightness Sun altitude
Rises 19:24:06 0° 197° (SSW) 3,052 6.6 -24.5°
Reaches altitude 10° 19:26:23 10° 196° (SSW) 2,143 5.8 -24.8°
Enters shadow 19:28:54 31° 192° (SSW) 1,209 4.4 -25.2°
